Time,TemperatureF,DewpointF,PressureIn,WindDirection,WindDirectionDegrees,WindSpeedMPH,WindSpeedGustMPH,Humidity,HourlyPrecipIn,Conditions,Clouds,dailyrainin,SoftwareType,DateUTC
2013-02-14 00:01:00,41.0,38.0,30.46,South,170,0.0,0.0,90,0.00,,,0.02,,2013-02-14 08:01:00,
2013-02-14 00:11:00,41.0,38.0,30.46,South,170,0.0,0.0,90,0.00,,,0.02,,2013-02-14 08:11:00,
2013-02-14 00:21:00,41.0,38.0,30.47,South,170,0.0,2.0,90,0.00,,,0.02,,2013-02-14 08:21:00,
2013-02-14 00:31:00,41.0,38.0,30.48,South,170,0.0,0.0,90,0.00,,,0.02,,2013-02-14 08:31:00,
2013-02-14 00:43:00,41.0,38.0,30.48,South,170,0.0,0.0,90,0.00,,,0.02,,2013-02-14 08:43:00,
2013-02-14 00:52:00,41.0,38.0,30.48,South,170,0.0,0.0,90,0.00,,,0.02,,2013-02-14 08:52:00,
2013-02-14 01:01:00,41.0,38.0,30.48,South,170,0.0,0.0,90,0.00,,,0.02,,2013-02-14 09:01:00,
2013-02-14 01:11:00,41.0,38.0,30.48,South,170,0.0,0.0,90,0.00,,,0.02,,2013-02-14 09:11:00,
2013-02-14 01:21:00,41.0,38.0,30.48,South,170,0.0,0.0,90,0.00,,,0.02,,2013-02-14 09:21:00,
2013-02-14 01:31:00,41.0,38.0,30.48,South,170,0.0,0.0,90,0.00,,,0.02,,2013-02-14 09:31:00,
2013-02-14 01:41:00,41.0,38.0,30.48,South,170,0.0,0.0,90,0.00,,,0.02,,2013-02-14 09:41:00,
2013-02-14 01:52:00,41.0,38.0,30.48,South,170,0.0,0.0,90,0.00,,,0.02,,2013-02-14 09:52:00,
2013-02-14 02:01:00,41.0,38.0,30.48,South,170,0.0,0.0,90,0.00,,,0.02,,2013-02-14 10:01:00,
2013-02-14 02:11:00,41.0,38.0,30.48,South,170,0.0,0.0,89,0.00,,,0.02,,2013-02-14 10:11:00,
2013-02-14 02:21:00,41.0,38.0,30.48,South,170,0.0,0.0,89,0.00,,,0.02,,2013-02-14 10:21:00,
2013-02-14 02:31:00,41.0,38.0,30.48,South,170,0.0,0.0,89,0.00,,,0.02,,2013-02-14 10:31:00,
2013-02-14 02:41:00,41.0,38.0,30.48,South,170,0.0,0.0,89,0.00,,,0.02,,2013-02-14 10:41:00,
2013-02-14 02:52:00,40.0,37.0,30.48,South,170,0.0,0.0,89,0.00,,,0.02,,2013-02-14 10:52:00,
2013-02-14 03:01:00,40.0,37.0,30.48,South,170,0.0,0.0,89,0.00,,,0.02,,2013-02-14 11:01:00,
2013-02-14 03:11:00,40.0,37.0,30.48,South,170,0.0,0.0,89,0.00,,,0.02,,2013-02-14 11:11:00,
2013-02-14 03:21:00,40.0,37.0,30.48,South,170,0.0,0.0,89,0.00,,,0.02,,2013-02-14 11:21:00,
2013-02-14 03:31:00,39.0,36.0,30.48,South,170,0.0,0.0,89,0.00,,,0.02,,2013-02-14 11:31:00,
2013-02-14 03:41:00,39.0,36.0,30.48,South,170,0.0,0.0,89,0.00,,,0.02,,2013-02-14 11:41:00,
2013-02-14 03:52:00,39.0,36.0,30.48,South,170,0.0,0.0,89,0.00,,,0.02,,2013-02-14 11:52:00,
2013-02-14 04:01:00,39.0,36.0,30.47,South,170,0.0,0.0,89,0.00,,,0.02,,2013-02-14 12:01:00,
2013-02-14 04:11:00,39.0,36.0,30.47,South,170,0.0,0.0,89,0.00,,,0.02,,2013-02-14 12:11:00,
2013-02-14 04:21:00,38.0,35.0,30.47,South,170,0.0,0.0,89,0.00,,,0.02,,2013-02-14 12:21:00,
2013-02-14 04:31:00,38.0,35.0,30.47,South,170,0.0,0.0,89,0.00,,,0.02,,2013-02-14 12:31:00,
2013-02-14 04:41:00,38.0,35.0,30.47,South,170,0.0,0.0,89,0.00,,,0.00,,2013-02-14 12:41:00,
2013-02-14 04:53:00,38.0,35.0,30.47,South,170,0.0,0.0,89,0.00,,,0.00,,2013-02-14 12:53:00,
2013-02-14 05:01:00,38.0,35.0,30.47,South,170,0.0,0.0,89,0.00,,,0.00,,2013-02-14 13:01:00,
2013-02-14 05:11:00,38.0,35.0,30.47,South,170,0.0,0.0,89,0.00,,,0.00,,2013-02-14 13:11:00,
2013-02-14 05:21:00,37.0,34.0,30.47,South,170,0.0,0.0,89,0.00,,,0.00,,2013-02-14 13:21:00,
2013-02-14 05:31:00,37.0,34.0,30.47,South,170,0.0,0.0,89,0.00,,,0.00,,2013-02-14 13:31:00,
2013-02-14 05:41:00,37.0,34.0,30.47,South,170,0.0,0.0,89,0.00,,,0.00,,2013-02-14 13:41:00,
2013-02-14 05:51:00,37.0,34.0,30.47,South,170,0.0,0.0,90,0.00,,,0.00,,2013-02-14 13:51:00,
2013-02-14 06:01:00,38.0,35.0,30.47,South,170,0.0,0.0,90,0.00,,,0.00,,2013-02-14 14:01:00,
2013-02-14 06:11:00,38.0,35.0,30.47,South,170,0.0,0.0,90,0.00,,,0.00,,2013-02-14 14:11:00,
2013-02-14 06:21:00,38.0,35.0,30.47,South,170,0.0,0.0,90,0.00,,,0.00,,2013-02-14 14:21:00,
2013-02-14 06:31:00,38.0,35.0,30.48,South,170,0.0,0.0,90,0.00,,,0.00,,2013-02-14 14:31:00,
2013-02-14 06:41:00,38.0,35.0,30.48,South,170,0.0,0.0,90,0.00,,,0.00,,2013-02-14 14:41:00,
2013-02-14 06:52:00,38.0,36.0,30.48,South,170,0.0,0.0,91,0.00,,,0.00,,2013-02-14 14:52:00,
2013-02-14 07:01:00,38.0,36.0,30.48,South,170,0.0,0.0,91,0.00,,,0.00,,2013-02-14 15:01:00,
2013-02-14 07:11:00,38.0,36.0,30.48,South,170,0.0,0.0,91,0.00,,,0.00,,2013-02-14 15:11:00,
2013-02-14 07:21:00,38.0,36.0,30.48,South,170,0.0,0.0,91,0.01,,,0.01,,2013-02-14 15:21:00,
2013-02-14 07:31:00,38.0,36.0,30.49,South,170,0.0,0.0,91,0.01,,,0.01,,2013-02-14 15:31:00,
2013-02-14 07:41:00,38.0,36.0,30.49,South,170,0.0,0.0,91,0.01,,,0.01,,2013-02-14 15:41:00,
2013-02-14 07:52:00,38.0,36.0,30.50,South,170,0.0,0.0,91,0.01,,,0.01,,2013-02-14 15:52:00,
2013-02-14 08:01:00,38.0,36.0,30.49,South,170,0.0,0.0,91,0.01,,,0.01,,2013-02-14 16:01:00,
2013-02-14 08:11:00,38.0,36.0,30.49,South,170,0.0,0.0,91,0.01,,,0.02,,2013-02-14 16:11:00,
2013-02-14 08:21:00,38.0,36.0,30.49,South,170,0.0,0.0,91,0.01,,,0.02,,2013-02-14 16:21:00,
2013-02-14 08:31:00,38.0,36.0,30.48,South,170,0.0,0.0,91,0.01,,,0.02,,2013-02-14 16:31:00,
2013-02-14 08:41:00,38.0,36.0,30.48,South,170,0.0,0.0,91,0.01,,,0.02,,2013-02-14 16:41:00,
2013-02-14 08:52:00,39.0,37.0,30.49,South,170,0.0,0.0,92,0.01,,,0.02,,2013-02-14 16:52:00,
2013-02-14 09:01:00,39.0,37.0,30.49,South,170,0.0,0.0,92,0.01,,,0.02,,2013-02-14 17:01:00,
2013-02-14 09:11:00,39.0,37.0,30.50,South,170,0.0,0.0,92,0.00,,,0.02,,2013-02-14 17:11:00,
2013-02-14 09:21:00,39.0,37.0,30.50,South,170,0.0,0.0,92,0.00,,,0.02,,2013-02-14 17:21:00,
2013-02-14 09:31:00,39.0,37.0,30.50,South,170,0.0,0.0,92,0.00,,,0.02,,2013-02-14 17:31:00,
2013-02-14 09:41:00,39.0,37.0,30.50,South,170,0.0,0.0,92,0.00,,,0.02,,2013-02-14 17:41:00,
2013-02-14 09:52:00,39.0,37.0,30.50,South,170,0.0,0.0,92,0.00,,,0.02,,2013-02-14 17:52:00,
2013-02-14 10:01:00,40.0,38.0,30.51,South,170,0.0,0.0,92,0.00,,,0.02,,2013-02-14 18:01:00,
2013-02-14 10:11:00,40.0,38.0,30.51,South,170,0.0,0.0,92,0.00,,,0.02,,2013-02-14 18:11:00,
2013-02-14 10:22:00,40.0,38.0,30.51,South,170,0.0,0.0,93,0.00,,,0.02,,2013-02-14 18:22:00,
2013-02-14 10:31:00,41.0,39.0,30.50,South,170,0.0,0.0,93,0.00,,,0.02,,2013-02-14 18:31:00,
2013-02-14 10:41:00,41.0,39.0,30.50,South,170,0.0,0.0,93,0.00,,,0.02,,2013-02-14 18:41:00,
2013-02-14 10:52:00,43.0,41.0,30.51,South,170,0.0,1.0,94,0.00,,,0.02,,2013-02-14 18:52:00,
2013-02-14 11:01:00,44.0,42.0,30.51,South,170,0.0,0.0,93,0.00,,,0.02,,2013-02-14 19:01:00,
2013-02-14 11:11:00,45.0,43.0,30.51,South,170,0.0,1.0,91,0.00,,,0.02,,2013-02-14 19:11:00,
2013-02-14 11:21:00,45.0,43.0,30.51,South,170,0.0,1.0,91,0.00,,,0.02,,2013-02-14 19:21:00,
2013-02-14 11:31:00,45.0,42.0,30.51,South,170,0.0,1.0,89,0.00,,,0.02,,2013-02-14 19:31:00,
2013-02-14 11:41:00,45.0,42.0,30.51,South,170,0.0,1.0,89,0.00,,,0.02,,2013-02-14 19:41:00,
2013-02-14 11:52:00,46.0,42.0,30.51,South,186,0.0,5.0,87,0.00,,,0.02,,2013-02-14 19:52:00,
2013-02-14 12:01:00,47.0,43.0,30.51,South,186,0.0,3.0,86,0.00,,,0.02,,2013-02-14 20:01:00,
2013-02-14 12:11:00,47.0,43.0,30.50,SW,222,0.0,3.0,86,0.00,,,0.02,,2013-02-14 20:11:00,
2013-02-14 12:21:00,47.0,43.0,30.50,SW,222,0.0,3.0,86,0.00,,,0.02,,2013-02-14 20:21:00,
2013-02-14 12:31:00,47.0,43.0,30.51,South,169,0.0,2.0,87,0.00,,,0.02,,2013-02-14 20:31:00,
2013-02-14 12:41:00,47.0,43.0,30.51,South,169,0.0,2.0,87,0.00,,,0.02,,2013-02-14 20:41:00,
2013-02-14 12:52:00,48.0,44.0,30.50,SE,146,0.0,3.0,86,0.00,,,0.02,,2013-02-14 20:52:00,
2013-02-14 13:01:00,48.0,44.0,30.50,SW,235,0.0,4.0,85,0.00,,,0.02,,2013-02-14 21:01:00,
2013-02-14 13:11:00,48.0,44.0,30.50,SW,235,0.0,4.0,85,0.00,,,0.02,,2013-02-14 21:11:00,
2013-02-14 13:21:00,49.0,45.0,30.50,SW,229,0.0,2.0,85,0.00,,,0.02,,2013-02-14 21:21:00,
2013-02-14 13:31:00,49.0,44.0,30.50,SW,225,1.0,3.0,82,0.00,,,0.02,,2013-02-14 21:31:00,
2013-02-14 13:41:00,49.0,44.0,30.50,SW,225,1.0,3.0,82,0.00,,,0.02,,2013-02-14 21:41:00,
2013-02-14 13:51:00,49.0,43.0,30.50,SSW,211,0.0,1.0,81,0.00,,,0.02,,2013-02-14 21:51:00,
2013-02-14 14:01:00,49.0,43.0,30.50,SSW,211,0.0,1.0,80,0.00,,,0.02,,2013-02-14 22:01:00,
2013-02-14 14:11:00,49.0,43.0,30.50,SSW,207,0.0,2.0,81,0.00,,,0.02,,2013-02-14 22:11:00,
2013-02-14 14:21:00,49.0,43.0,30.50,SSW,207,0.0,2.0,81,0.00,,,0.02,,2013-02-14 22:21:00,
2013-02-14 14:31:00,49.0,44.0,30.50,South,191,0.0,3.0,82,0.00,,,0.02,,2013-02-14 22:31:00,
2013-02-14 14:41:00,49.0,44.0,30.50,South,191,0.0,3.0,82,0.00,,,0.02,,2013-02-14 22:41:00,
2013-02-14 14:51:00,49.0,44.0,30.51,SW,228,1.0,4.0,82,0.00,,,0.02,,2013-02-14 22:51:00,
2013-02-14 15:01:00,49.0,44.0,30.50,WSW,248,0.0,3.0,83,0.00,,,0.02,,2013-02-14 23:01:00,
2013-02-14 15:11:00,49.0,44.0,30.50,WSW,248,0.0,3.0,83,0.00,,,0.02,,2013-02-14 23:11:00,
2013-02-14 15:21:00,49.0,44.0,30.50,SSW,197,0.0,3.0,83,0.00,,,0.02,,2013-02-14 23:21:00,
2013-02-14 15:31:00,49.0,44.0,30.50,SSW,197,0.0,1.0,83,0.00,,,0.02,,2013-02-14 23:31:00,
2013-02-14 15:41:00,49.0,44.0,30.50,SSW,197,0.0,1.0,83,0.00,,,0.02,,2013-02-14 23:41:00,
2013-02-14 15:52:00,49.0,44.0,30.50,SSW,192,0.0,4.0,83,0.00,,,0.02,,2013-02-14 23:52:00,
2013-02-14 16:01:00,49.0,44.0,30.50,SSW,192,1.0,2.0,82,0.00,,,0.02,,2013-02-15 00:01:00,
2013-02-14 16:11:00,49.0,44.0,30.50,SSW,192,1.0,2.0,82,0.00,,,0.02,,2013-02-15 00:11:00,
2013-02-14 16:21:00,49.0,43.0,30.50,South,184,1.0,3.0,80,0.00,,,0.02,,2013-02-15 00:21:00,
2013-02-14 16:31:00,49.0,43.0,30.50,South,183,0.0,4.0,81,0.00,,,0.02,,2013-02-15 00:31:00,
2013-02-14 16:41:00,49.0,43.0,30.50,South,183,0.0,4.0,81,0.00,,,0.02,,2013-02-15 00:41:00,
2013-02-14 16:52:00,49.0,43.0,30.50,South,183,0.0,1.0,81,0.00,,,0.02,,2013-02-15 00:52:00,
2013-02-14 17:01:00,49.0,43.0,30.50,South,183,0.0,1.0,81,0.00,,,0.02,,2013-02-15 01:01:00,
2013-02-14 17:11:00,49.0,43.0,30.50,South,183,0.0,1.0,81,0.00,,,0.02,,2013-02-15 01:11:00,
2013-02-14 17:21:00,49.0,43.0,30.50,South,183,0.0,1.0,81,0.00,,,0.02,,2013-02-15 01:21:00,
2013-02-14 17:31:00,49.0,43.0,30.49,South,183,0.0,1.0,81,0.00,,,0.02,,2013-02-15 01:31:00,
2013-02-14 17:41:00,49.0,43.0,30.49,South,183,0.0,1.0,81,0.00,,,0.02,,2013-02-15 01:41:00,
2013-02-14 17:51:00,49.0,44.0,30.50,South,183,0.0,0.0,82,0.00,,,0.02,,2013-02-15 01:51:00,
2013-02-14 18:01:00,49.0,43.0,30.49,South,183,0.0,0.0,81,0.00,,,0.02,,2013-02-15 02:01:00,
2013-02-14 18:11:00,48.0,43.0,30.50,South,183,0.0,0.0,82,0.00,,,0.02,,2013-02-15 02:11:00,
2013-02-14 18:21:00,48.0,43.0,30.50,South,183,0.0,0.0,82,0.00,,,0.02,,2013-02-15 02:21:00,
2013-02-14 18:31:00,48.0,43.0,30.49,South,183,0.0,0.0,82,0.00,,,0.02,,2013-02-15 02:31:00,
2013-02-14 18:41:00,48.0,43.0,30.49,South,183,0.0,0.0,82,0.00,,,0.02,,2013-02-15 02:41:00,
2013-02-14 18:52:00,48.0,43.0,30.50,South,183,0.0,0.0,82,0.00,,,0.02,,2013-02-15 02:52:00,
2013-02-14 19:01:00,47.0,42.0,30.50,South,183,0.0,0.0,82,0.00,,,0.02,,2013-02-15 03:01:00,
2013-02-14 19:11:00,47.0,42.0,30.50,South,183,0.0,0.0,82,0.00,,,0.02,,2013-02-15 03:11:00,
2013-02-14 19:21:00,47.0,42.0,30.50,South,183,0.0,0.0,83,0.00,,,0.02,,2013-02-15 03:21:00,
2013-02-14 19:31:00,47.0,43.0,30.50,South,183,0.0,1.0,85,0.00,,,0.02,,2013-02-15 03:31:00,
2013-02-14 19:41:00,47.0,43.0,30.50,South,183,0.0,1.0,85,0.00,,,0.02,,2013-02-15 03:41:00,
2013-02-14 19:52:00,46.0,42.0,30.50,South,183,0.0,0.0,86,0.00,,,0.02,,2013-02-15 03:52:00,
2013-02-14 20:01:00,46.0,42.0,30.50,South,183,0.0,0.0,86,0.00,,,0.02,,2013-02-15 04:01:00,
2013-02-14 20:11:00,46.0,42.0,30.50,South,183,0.0,0.0,86,0.00,,,0.02,,2013-02-15 04:11:00,
2013-02-14 20:21:00,46.0,42.0,30.50,South,183,0.0,0.0,87,0.00,,,0.02,,2013-02-15 04:21:00,
2013-02-14 20:31:00,46.0,42.0,30.50,South,183,0.0,0.0,87,0.00,,,0.02,,2013-02-15 04:31:00,
2013-02-14 20:41:00,46.0,42.0,30.50,South,183,0.0,0.0,87,0.00,,,0.02,,2013-02-15 04:41:00,
2013-02-14 20:52:00,46.0,42.0,30.50,South,183,0.0,0.0,87,0.00,,,0.02,,2013-02-15 04:52:00,
2013-02-14 21:01:00,46.0,42.0,30.50,South,183,0.0,0.0,87,0.00,,,0.02,,2013-02-15 05:01:00,
2013-02-14 21:11:00,46.0,42.0,30.50,South,183,0.0,0.0,87,0.00,,,0.02,,2013-02-15 05:11:00,
2013-02-14 21:22:00,46.0,42.0,30.50,South,183,0.0,0.0,87,0.00,,,0.02,,2013-02-15 05:22:00,
2013-02-14 21:32:00,45.0,41.0,30.50,South,183,0.0,0.0,87,0.00,,,0.02,,2013-02-15 05:32:00,
2013-02-14 21:41:00,45.0,41.0,30.50,South,183,0.0,0.0,87,0.00,,,0.02,,2013-02-15 05:41:00,
2013-02-14 21:52:00,45.0,41.0,30.50,South,183,0.0,0.0,87,0.00,,,0.02,,2013-02-15 05:52:00,
2013-02-14 22:01:00,45.0,41.0,30.50,South,183,0.0,0.0,87,0.00,,,0.02,,2013-02-15 06:01:00,
2013-02-14 22:11:00,45.0,42.0,30.50,South,183,0.0,0.0,88,0.00,,,0.02,,2013-02-15 06:11:00,
2013-02-14 22:21:00,45.0,42.0,30.50,South,183,0.0,0.0,88,0.00,,,0.02,,2013-02-15 06:21:00,
2013-02-14 22:31:00,45.0,42.0,30.50,South,183,0.0,0.0,88,0.00,,,0.02,,2013-02-15 06:31:00,
2013-02-14 22:41:00,45.0,42.0,30.50,South,183,0.0,0.0,88,0.00,,,0.02,,2013-02-15 06:41:00,
2013-02-14 22:52:00,45.0,42.0,30.50,South,183,0.0,0.0,88,0.00,,,0.02,,2013-02-15 06:52:00,
2013-02-14 23:01:00,45.0,42.0,30.50,South,183,0.0,0.0,89,0.00,,,0.02,,2013-02-15 07:01:00,
2013-02-14 23:11:00,45.0,42.0,30.50,South,183,0.0,0.0,89,0.00,,,0.02,,2013-02-15 07:11:00,
2013-02-14 23:21:00,45.0,42.0,30.50,South,183,0.0,0.0,89,0.00,,,0.02,,2013-02-15 07:21:00,
2013-02-14 23:31:00,45.0,42.0,30.50,South,183,0.0,0.0,89,0.00,,,0.02,,2013-02-15 07:31:00,
2013-02-14 23:41:00,45.0,42.0,30.50,South,183,0.0,0.0,89,0.00,,,0.02,,2013-02-15 07:41:00,
2013-02-14 23:52:00,45.0,42.0,30.50,South,183,0.0,0.0,89,0.00,,,0.02,,2013-02-15 07:52:00,